User: anonymous   Login
Location: Fort Wayne
(41.1310°N, 85.1290°W)
Time: 01:18:29
(UTC-04:00)
Language:

Cosmos 2227 Rocket - Orbit

View from above orbital plane
View from above orbital plane
View from above satellite
View from above satellite

Ground track
Ground track

The orbit data is extracted from the following two-line orbital elements,

1 22285U 92093B   15116.87662847 -.00000026  00000-0  11231-4 0  9995
2 22285 071.0223 053.3345 0006337 248.8040 111.2406 14.14960969151870
Epoch (UTC): 26 April 2015 21:02:20
Eccentricity: 0.0006337
inclination: 71.0223°
perigee height: 838 km
apogee height: 847 km
right ascension of ascending node: 53.3345°
argument of perigee: 248.8040°
revolutions per day: 14.14960969
mean anomaly at epoch: 111.2406°
orbit number at epoch: 15187

The dashed part of the orbit path shows where the satellite is in the earth's shadow,  

DLR